Location: Arroyo de Valdeoliva
(40.1604°N, 4.9878°W)
Time: 11:56:10
(UTC+00:00)

ARIANE 6 FM1 Upper Stage - Pass Details

Date: 21 February 2026
Orbit: 523 x 607 km, 62.0° (Epoch: 8 March)

Event Time Altitude Azimuth Distance (km) Brightness Sun altitude
Rises 19:16:11 0° 313° (NW) 2,656 6.8 -14.8°
Reaches altitude 10° 19:18:33 10° 302° (WNW) 1,767 6.1 -15.2°
Maximum altitude 19:22:00 29° 242° (WSW) 988 4.6 -15.9°
Drops below altitude 10° 19:25:28 10° 181° (S) 1,779 5.2 -16.5°
Sets 19:27:52 0° 170° (S) 2,677 6.0 -17.0°
